www.pogodaiklimat.ru

Погода и климат >> Архив погоды >> Россия >> Нижегородская область >> Выкса


ПОГОДА в Выксе

  • Прогноз погоды в Выксе
  • Монитор погоды в Выксе
  • Климат города

АРХИВ ПОГОДЫ в Выксе

Время (UTC), дата Ветер
(напр.,м/с)
 
Видим.   Явления Облачность Т
(С)
Тd
(С)
f
(%)
Тe
(С)
Тes
(С)
Комфортность P
(гПа)
Po
(гПа)
Тmin
(С)
Tmax
(С)
R
(мм)
R24
(мм)
S
(см)
09 14.06 С 3-6
{7}
10 км 9/9 300 м
[Sc]
+11.9 +4.5 60 +10 +12 1016.0 1002.3
12 14.06 С 3-5
{7}
10 км 8/8 300 м
[Sc]
+12.4 +5.0 61 +11 +13 1016.8 1003.1
15 14.06 С 2-4
{11}
10 км 8/3 300 м
[Cu hum Ci fib]
+15.0 +4.8 50 +15 +17 1016.7 1003.1 +15.0
18 14.06 З 1-2
{4}
10 км 9/0
[Ac As]
+10.3 +6.4 77 +10 +10 1017.4 1003.6
21 14.06 СЗ 1-2
{2}
10 км 9/0
[As op]
+7.9 +5.9 87 +7 +7 1018.4 1004.4
00 15.06 СВ 1-2
{4}
10 км 6/0
[Ci fib]
+7.7 +3.0 72 +7 +7 1019.1 1005.1
03 15.06 В 2-3
{3}
10 км 4/0
[Ci fib]
+11.1 +2.9 57 +10 +12 1019.4 1005.6 +7.6
06 15.06 В 2-4
{5}
10 км 4/0
[Cc]
+15.1 +1.7 40 +15 +25 1020.3 1006.7
09 15.06 ЮВ 3-6
{7}
10 км 4/4 1000 м
[Cu hum]
+16.4 +2.5 39 +16 +24 1020.7 1007.1
12 15.06 СВ 3 10 км 4/4 1000 м
[Cu hum]
+19.0 +2.3 33 +19 +25 1019.6 1006.2
15 15.06 С 4-7
{8}
10 км 3/3 1000 м
[Cu hum Ci fib]
+18.4 +2.9 36 +18 +20 1019.5 1006.1 +19.0
18 15.06 С 1-2
{8}
10 км ясно +13.0 +4.5 56 +13 +13 1019.5 1005.8
21 15.06 штиль 0
{2}
10 км ясно +7.6 +5.1 84 +7 +7 1020.2 1006.2
00 16.06 штиль 0
{2}
10 км 8/8 600 м
[Sc]
+7.1 +6.2 94 +6 +6 1020.9 1006.9
03 16.06 штиль 0
{2}
10 км 9/0
[Ac As]
+9.0 +8.0 93 +8 +9 1021.7 1007.8 +7.0
06 16.06 СЗ 2-4
{4}
10 км ясно +18.7 +7.1 47 +20 +30 1020.6 1007.2
09 16.06 СВ 4-8
{8}
10 км 6/6 1000 м
[Cu med, cong]
+19.9 +6.8 43 +21 +25 комфорт 1019.9 1006.6
12 16.06 СВ 3-6
{9}
10 км 8/8 1000 м
[Cu med, cong]
+22.3 +5.6 34 +23 +25 комфорт 1019.0 1005.8
15 16.06 С 4-7
{10}
10 км ясно +21.4 +4.1 32 +22 +24 комфорт 1018.8 1005.5 +22.3
18 16.06 С 2-2
{7}
10 км ясно +15.2 +5.6 53 +15 +15 1018.9 1005.3
21 16.06 штиль 0
{2}
10 км ясно +9.9 +6.2 78 +9 +9 1019.3 1005.5
00 17.06 штиль 0
{1}
10 км ясно +7.6 +6.7 94 +7 +7 1019.8 1005.8
03 17.06 штиль 0
{2}
10 км 3/0
[Ci fib]
+12.4 +8.8 79 +12 +15 1020.1 1006.4 +7.5
06 17.06 С 2-3
{3}
10 км 8/0
[Ci]
+20.5 +7.0 42 +22 +28 комфорт 1020.4 1007.1
09 17.06 С 2-4
{6}
10 км 6/0
[Ci]
+23.8 +4.8 29 +24 +35 комфорт 1019.4 1006.2
12 17.06 СЗ 3-5
{6}
10 км 8/0
[Ci]
+23.3 +7.4 36 +24 +30 комфорт 1018.4 1005.2
15 17.06 С 2-3
{8}
10 км 9/0
[Ci]
+23.6 +7.1 35 +24 +25 комфорт 1017.3 1004.1 +23.8
18 17.06 З 2-2
{4}
10 км 8/0
[Ci]
+19.2 +9.2 52 +21 +21 комфорт 1017.2 1003.8
21 17.06 СЗ 2-2
{3}
10 км 4/0
[Ci]
+15.3 +9.0 66 +15 +15 1017.0 1003.4
00 18.06 СЗ 2-2
{3}
10 км 6/0
[Ci]
+13.1 +8.8 75 +12 +12 1017.2 1003.5
03 18.06 СЗ 1-2
{2}
10 км 3/0
[Ci]
+16.2 +11.0 71 +17 +19 1017.2 1003.7 +13.0
06 18.06 С 3-4
{4}
10 км ясно +23.1 +13.7 55 +26 +35 жарко 1015.8 1002.7
09 18.06 С 4-8
{8}
10 км 4/4 1000 м
[Cu hum]
+26.6 +12.7 42 +22 +29 комфорт 1015.6 1002.6
12 18.06 СЗ 5-7
{8}
10 км 4/4 1000 м
[Cu med, cong]
+27.5 +10.7 35 +28 +32 жарко 1014.5 1001.5
15 18.06 СВ 3-5
{8}
10 км 6/0
[Ac As]
+27.1 +10.6 36 +28 +29 жарко 1013.5 1000.5 +27.5
18 18.06 З 2-2
{8}
10 км 8/0
[As op]
+20.5 +11.7 57 +23 +23 комфорт 1013.7 1000.5
21 18.06 З 1-1
{3}
10 км 4/0
[As op]
+17.9 +13.5 75 +19 +19 1013.8 1000.5
00 19.06 штиль 0
{2}
10 км 8/0
[As op]
+15.7 +12.6 82 +16 +16 1014.6 1001.2
03 19.06 ЮЗ 1-2
{2}
10 км 3/0
[Ci fib]
+18.6 +13.7 73 +20 +23 1014.5 1001.2 +15.6
06 19.06 З 1-2
{3}
10 км 4/0
[Ac trans]
+24.3 +13.5 51 +27 +36 жарко 1013.6 1000.5
09 19.06 З 4-6
{8}
10 км 6/3 600 м
[Cu hum Ci fib]
+27.8 +8.6 30 +28 +35 жарко 1012.6 999.7
12 19.06 З 4-7
{9}
10 км 8/8 600 м
[Cu hum]
+28.0 +8.5 29 +28 +29 жарко 1011.1 998.3
15 19.06 З 3-5
{7}
10 км 10/0
[Ac As]
+27.0 +12.0 39 +28 +29 жарко 1009.6 996.7 +28.0
18 19.06 ЮЗ 2-4
{9}
10 км 10/0
[Ac As]
+21.9 +14.0 61 +25 +25 комфорт 1009.7 996.6
21 19.06 З 2-4
{6}
10 км 10/0
[As op]
+19.6 +12.7 64 +22 +22 комфорт 1008.8 995.5
00 20.06 ЮЗ 2-4
{5}
10 км 10/0
[Ac As]
+18.1 +13.5 74 +19 +19 1007.0 993.7
03 20.06 З 3-4
{5}
10 км {дождь} 10/0
[Ac As]
+18.0 +14.0 77 +18 +19 1005.7 992.5 +17.9 0.0
06 20.06 СЗ 5-9
{10}
10 км {дождь} 8/8 600 м
[Cb cap]
+19.4 +12.6 65 +21 +22 комфорт 1005.5 992.4
09 20.06 СЗ 7-11
{13}
10 км 3/3 1000 м
[Cu hum]
+20.9 +5.5 37 +21 +25 комфорт 1006.2 993.0
12 20.06 СЗ 6-9
{14}
10 км 4/4 1000 м
[Cu hum]
+22.5 +4.1 30 +23 +25 комфорт 1007.1 994.0
15 20.06 З 5-9
{11}
10 км 4/4 1000 м
[Cu hum]
+21.4 +2.9 30 +21 +22 комфорт 1007.1 993.9 +22.5 0.0
18 20.06 З 3-4
{10}
10 км 3/3 1000 м
[Cu hum]
+18.0 +4.3 40 +18 +18 1007.3 993.9
21 20.06 СЗ 3-3
{10}
10 км ясно +14.1 +5.0 54 +13 +13 1008.8 995.4
00 21.06 З 3-5
{5}
10 км ясно +12.9 +5.1 59 +12 +12 1009.5 996.0
03 21.06 З 4-7
{8}
10 км ясно +14.1 +6.4 60 +13 +14 1010.1 996.7 +12.8

 

Местоположение метеостанции Выкса (Нижегородская область, Россия): широта 55.33 долгота 42.12 высота над уровнем моря 114 м.

В архиве по умолчанию представлена погода в Выксе за последнюю неделю. Архивные данные за месяц целиком и за предыдущие месяцы, начиная с января 2011 года, Вы можете получить, выбрав интересующий диапазон дат из раскрывающегося списка и нажав кнопку "Ввод!".


*Определитесь, кто Вы:
робот инопланетянин человек

Внимание! Время в таблицах - всемирное. Для получения местного времени необходимо прибавить поправку, которая в Выксе равна 3 ч.

Смотрите также архив погоды в соседних городах и на ближайших метеорологических станциях:

Погода в Муроме (Владимирская область, Россия) (31 км)
Погода в Елатьме (Рязанская область, Россия) (48 км)
Погода в Павлово (Нижегородская область, Россия) (90 км)
Погода в Вязниках (Владимирская область, Россия) (97 км)
Погода в Гусь-Хрустальный (Владимирская область, Россия) (97 км)
Погода в Туме (Рязанская область, Россия) (102 км)
Погода в Арзамасе (Нижегородская область, Россия) (105 км)
Погода в Темникове (Мордовия, Россия) (105 км)
Погода в Сасово (Рязанская область, Россия) (109 км)
Погода в Коврове (Владимирская область, Россия) (124 км)

Пояснения к столбцам:

Ветер - указаны скорость ветра в м/с - средняя за 10 мин, порывы в срок и между сроками (в фигурных скобках) и направление, откуда дует ветер: С - северный, СВ - северо-восточный, В - восточный, ЮВ - юго-восточный, Ю - южный, ЮЗ - юго-западный, З - западный, СЗ - северо-западный.
Видимость - горизонтальная дальность видимости в метрах или километрах. При видимости от 1 до 10 км при отсутствии осадков обычно наблюдается дымка, при ухудшении видимости до 1 км и менее - туман. В сухую погоду видимость может ухудшаться дымом, пылью или мглою.
Явления - указаны атмосферные явления, наблюдавшиеся в срок или в последний час перед сроком; фигурными скобками обозначены явления, наблюдавшиеся между сроками (за 1-3 часа до срока); квадратными скобками обозначены град или гололедные отложения с указанием их диаметра в мм.
Облачность - указаны через наклонную черту общая и нижняя облачность в баллах и высота нижней границы облаков в метрах; квадратными скобками обозначены формы облаков: Ci - перистые, Cs - перисто-слоистые, Cc - перисто-кучевые, Ac - высококучевые, As - высокослоистые, Sc - слоисто-кучевые, Ns - слоисто-дождевые, Cu - кучевые, Cb - кучево-дождевые. Подробнее классификацию облаков см. в Атласе облаков (PDF).
T - Температура воздуха - температура, измеренная на высоте 2 м над землей.
Td - Температура точки росы - температура, при понижении до которой содержащийся в воздухе водяной пар достигнет насыщения.
f - Относительная влажность воздуха - влажноcть воздуха, измеренная на высоте 2 м над землей.
Te - Эффективная температура - температура, которую ощущает одетый по сезону человек в тени. Характеристика душности погоды. При расчете учитывается влияние влажности воздуха и скорости ветра на теплоощущения человека.
Tes - Эффективная температура на солнце - температура, которую ощущает человек, с поправкой на солнечный нагрев. Характеристика знойности погоды. Зависит от высоты солнца над горизонтом, облачности и скорости ветра. Ночью, в пасмурную погоду, а также при ветре 12 м/с и более поправка равна нулю.
P - Атмосферное давление - приведенное к уровню моря атмосферное давление.
Po - Атмосферное давление - измеренное на уровне метеостанции атмосферное давление.
Tmin - Минимальная температура - минимум температуры воздуха на высоте 2 м над землей.
Tmax - Максимальная температура - максимум температуры воздуха на высоте 2 м над землей.
R - Количество осадков - Количество выпавших осадков за период времени, мм. При наведении курсора мыши на число - период времени, за который выпало указанное количество осадков.
R24 - Количество осадков - Количество выпавших осадков за 24 часа, мм.
S - Снежный покров - Высота снежного покрова, см. При наведении курсора мыши на число - состояние снежного покрова и степень покрытия местности в баллах.